Date String (YYYY-MM-DD hh:mm:ss) UTC,Instrument flags,Ambient pressure (hPa),Sample flow (lpm),Bypass flow (lpm),Sample temperature (°C),Ambient temperature (°C),ASC tube jacket temperature (°C),LED temperature (°C),Box temperature (°C),Sample RH (%),Span deviation,Mass concentration (μg/m³),Mass concentration (μg/m³),Mass concentration (μg/m³)
DateTimeUTC,F1_M11,P_M11,Q1_M11,Q2_M11,T1_M11,T2_M11,T3_M11,T4_M11,T5_M11,U1_M11,ZSPAN_M11,X0_M11,X2_M11,X1_M11
2022-03-14 20:00:00,,0829.7,4.99,0.00,26.9,26.3,00.0,35.7,28.7,08.0,0000.0,0007.31,0001.97,0001.31
2022-03-14 20:01:00,,0829.7,4.99,0.00,26.9,26.3,00.0,35.7,28.8,07.8,0000.0,0006.65,0002.04,0001.31
2022-03-14 20:02:00,,0829.7,5.01,0.00,26.9,26.3,00.0,35.7,28.8,08.0,0000.0,0006.50,0002.03,0001.33
2022-03-14 20:03:00,,0829.7,5.00,0.00,26.9,26.3,00.0,35.7,28.8,07.9,0000.0,0006.54,0002.05,0001.34
2022-03-14 20:04:00,,0829.7,5.00,0.00,26.9,26.3,00.0,35.7,28.8,07.9,0000.0,0006.57,0002.08,0001.36
2022-03-14 20:05:00,,0829.6,5.00,0.00,26.9,26.3,00.0,35.7,28.8,08.0,0000.0,0006.62,0002.11,0001.38
2022-03-14 20:06:00,,0829.6,4.99,0.00,27.0,26.3,00.0,35.8,28.7,08.1,0000.0,0006.02,0002.18,0001.40
2022-03-14 20:07:00,,0829.6,5.00,0.00,27.0,26.3,00.0,35.8,28.8,08.0,0000.0,0005.29,0002.26,0001.41
2022-03-14 20:08:00,,0829.6,5.01,0.00,27.0,26.3,00.0,35.8,28.8,08.0,0000.0,0005.50,0002.33,0001.44
2022-03-14 20:09:00,,0829.5,5.01,0.00,27.0,26.3,00.0,35.8,28.8,07.9,0000.0,0006.53,0002.41,0001.46
2022-03-14 20:10:00,,0829.6,5.00,0.00,27.0,26.3,00.0,35.8,28.8,08.0,0000.0,0006.89,0002.49,0001.49
2022-03-14 20:11:00,,0829.6,5.00,0.00,27.0,26.3,00.0,35.8,28.8,08.1,0000.0,0007.29,0002.52,0001.49
2022-03-14 20:12:00,,0829.5,5.01,0.00,27.0,26.4,00.0,35.8,28.9,08.1,0000.0,0007.14,0002.50,0001.50
2022-03-14 20:13:00,,0829.6,5.00,0.00,27.1,26.4,00.0,35.8,28.9,08.0,0000.0,0006.30,0002.53,0001.49
2022-03-14 20:14:00,,0829.5,4.99,0.00,27.1,26.5,00.0,35.9,28.9,08.0,0000.0,0006.40,0002.56,0001.49
2022-03-14 20:15:00,,0829.5,4.99,0.00,27.1,26.5,00.0,35.9,29.0,07.8,0000.0,0006.78,0002.50,0001.46
2022-03-14 20:16:00,,0829.5,5.00,0.00,27.1,26.5,00.0,35.9,29.0,07.5,0000.0,0006.79,0002.43,0001.43
2022-03-14 20:17:00,,0829.5,5.00,0.00,27.2,26.5,00.0,35.9,29.0,07.4,0000.0,0006.60,0002.33,0001.38
2022-03-14 20:18:00,,0829.5,5.00,0.00,27.2,26.6,00.0,35.9,29.0,07.4,0000.0,0006.64,0002.25,0001.35
2022-03-14 20:19:00,,0829.5,5.01,0.00,27.2,26.6,00.0,36.0,29.1,07.4,0000.0,0006.56,0002.19,0001.30
2022-03-14 20:20:00,,0829.5,5.02,0.00,27.2,26.6,00.0,36.0,29.1,07.2,0000.0,0005.92,0002.15,0001.26
2022-03-14 20:21:00,,0829.5,5.00,0.00,27.3,26.6,00.0,36.0,29.1,07.3,0000.0,0005.30,0002.05,0001.21
2022-03-14 20:22:00,,0829.5,4.99,0.00,27.3,26.7,00.0,36.0,29.1,07.3,0000.0,0004.86,0001.98,0001.18
2022-03-14 20:23:00,,0829.5,5.01,0.00,27.3,26.7,00.0,36.0,29.2,07.3,0000.0,0004.84,0001.97,0001.14
2022-03-14 20:24:00,,0829.5,5.00,0.00,27.3,26.7,00.0,36.1,29.2,07.3,0000.0,0004.64,0001.91,0001.12
2022-03-14 20:25:00,,0829.5,5.01,0.00,27.3,26.7,00.0,36.1,29.2,07.3,0000.0,0004.40,0001.82,0001.10
2022-03-14 20:26:00,,0829.5,5.00,0.00,27.4,26.8,00.0,36.1,29.2,07.4,0000.0,0004.17,0001.88,0001.10
2022-03-14 20:27:00,,0829.5,4.99,0.00,27.4,26.8,00.0,36.1,29.2,07.6,0000.0,0003.91,0001.89,0001.11
2022-03-14 20:28:00,,0829.5,5.00,0.00,27.4,26.8,00.0,36.2,29.3,07.5,0000.0,0004.08,0001.95,0001.12
2022-03-14 20:29:00,,0829.5,5.01,0.00,27.4,26.9,00.0,36.2,29.3,07.3,0000.0,0003.94,0001.96,0001.13
2022-03-14 20:30:00,,0829.5,5.01,0.00,27.5,26.9,00.0,36.2,29.3,07.5,0000.0,0003.82,0001.92,0001.14
2022-03-14 20:31:00,,0829.5,5.00,0.00,27.5,26.9,00.0,36.2,29.3,07.2,0000.0,0003.56,0001.88,0001.15
2022-03-14 20:32:00,,0829.5,5.00,0.00,27.5,26.9,00.0,36.3,29.4,07.2,0000.0,0004.46,0001.88,0001.17
2022-03-14 20:33:00,,0829.6,5.00,0.00,27.5,26.9,00.0,36.3,29.4,07.2,0000.0,0004.74,0001.93,0001.18
2022-03-14 20:34:00,,0829.5,5.00,0.00,27.5,27.0,00.0,36.3,29.4,07.4,0000.0,0004.70,0001.93,0001.19
2022-03-14 20:35:00,,0829.5,5.00,0.00,27.6,27.0,00.0,36.3,29.4,07.3,0000.0,0004.96,0001.92,0001.19
2022-03-14 20:36:00,,0829.5,5.01,0.00,27.6,27.0,00.0,36.4,29.5,07.7,0000.0,0005.42,0001.94,0001.20
2022-03-14 20:37:00,,0829.5,5.00,0.00,27.6,27.0,00.0,36.4,29.5,07.8,0000.0,0005.51,0001.94,0001.21
2022-03-14 20:38:00,,0829.5,5.00,0.00,27.6,27.1,00.0,36.4,29.5,07.9,0000.0,0005.71,0001.99,0001.25
2022-03-14 20:39:00,,0829.4,5.00,0.00,27.7,27.1,00.0,36.4,29.5,07.8,0000.0,0005.79,0002.02,0001.26
2022-03-14 20:40:00,,0829.5,5.01,0.00,27.7,27.1,00.0,36.4,29.5,08.0,0000.0,0007.05,0002.08,0001.30
2022-03-14 20:41:00,,0829.5,5.00,0.00,27.7,27.1,00.0,36.5,29.6,07.5,0000.0,0007.63,0002.12,0001.33
2022-03-14 20:42:00,,0829.5,5.00,0.00,27.7,27.1,00.0,36.5,29.6,07.7,0000.0,0007.74,0002.15,0001.35
2022-03-14 20:43:00,,0829.5,5.00,0.00,27.7,27.1,00.0,36.5,29.6,07.5,0000.0,0007.05,0002.18,0001.35
2022-03-14 20:44:00,,0829.5,5.00,0.00,27.7,27.1,00.0,36.5,29.6,07.5,0000.0,0007.07,0002.21,0001.37
2022-03-14 20:45:00,,0829.5,5.00,0.00,27.7,27.1,00.0,36.6,29.6,07.7,0000.0,0007.64,0002.23,0001.38
2022-03-14 20:46:00,,0829.5,5.00,0.00,27.7,27.1,00.0,36.6,29.6,07.4,0000.0,0007.80,0002.26,0001.39
2022-03-14 20:47:00,,0829.5,4.99,0.00,27.8,27.1,00.0,36.6,29.6,07.3,0000.0,0007.56,0002.27,0001.38
2022-03-14 20:48:00,,0829.5,5.00,0.00,27.8,27.1,00.0,36.6,29.5,07.5,0000.0,0007.46,0002.23,0001.38
2022-03-14 20:49:00,,0829.5,5.00,0.00,27.8,27.1,00.0,36.6,29.6,07.4,0000.0,0007.31,0002.18,0001.37
2022-03-14 20:50:00,,0829.5,5.00,0.00,27.8,27.1,00.0,36.6,29.6,07.4,0000.0,0007.57,0002.15,0001.35
2022-03-14 20:51:00,,0829.5,5.01,0.00,27.8,27.1,00.0,36.6,29.6,07.5,0000.0,0006.76,0002.12,0001.33
2022-03-14 20:52:00,,0829.5,5.00,0.00,27.8,27.1,00.0,36.6,29.6,07.4,0000.0,0006.18,0002.12,0001.32
2022-03-14 20:53:00,,0829.5,5.00,0.00,27.8,27.1,00.0,36.7,29.6,07.1,0000.0,0005.82,0002.08,0001.30
2022-03-14 20:54:00,,0829.5,4.99,0.00,27.8,27.2,00.0,36.7,29.7,07.1,0000.0,0005.85,0002.06,0001.28
2022-03-14 20:55:00,,0829.5,5.00,0.00,27.8,27.2,00.0,36.7,29.7,07.3,0000.0,0005.72,0002.01,0001.26
2022-03-14 20:56:00,,0829.5,5.00,0.00,27.9,27.2,00.0,36.7,29.7,07.3,0000.0,0005.83,0002.01,0001.25
2022-03-14 20:57:00,,0829.5,5.00,0.00,27.9,27.2,00.0,36.7,29.7,07.3,0000.0,0005.15,0001.98,0001.23
2022-03-14 20:58:00,,0829.4,5.01,0.00,27.9,27.2,00.0,36.7,29.8,07.3,0000.0,0005.20,0001.98,0001.22
2022-03-14 20:59:00,,0829.4,5.00,0.00,27.9,27.3,00.0,36.7,29.8,07.6,0000.0,0006.13,0002.02,0001.21
